DW3651 Weather Reports


Display with metric or nautical units.
time (UTC)temp
F
wind
direction
speed
MPH
gust
MPH
rain 1hr
in
rain 24hr
in
rain mn
in
humidity
%
barometer
mb
20240529234231 56 194 2.0 4.0 0.00 1.09 0.00 94 1006.1
20240529233740 56 188 2.0 4.0 0.00 1.09 0.00 93 1006.0
20240529233231 56 182 2.0 3.0 0.00 1.09 0.00 93 1006.1
20240529232728 56 185 1.0 3.0 0.00 1.09 0.00 93 1006.1
20240529232223 56 185 1.0 3.0 0.00 1.09 0.00 93 1006.1
20240529231723 56 185 0.0 3.0 0.00 1.09 0.00 93 1006.1
20240529231649 56 185 1.0 3.0 0.00 1.09 0.00 93 1006.2
20240529231251 56 185 0.0 3.0 0.00 1.09 0.00 93 1006.1
20240529230847 56 185 1.0 3.0 0.00 1.09 0.00 93 1006.2
20240529225719 56 185 1.0 3.0 0.00 1.09 0.00 93 1006.2
20240529225638 56 184 1.0 3.0 0.00 1.09 0.00 93 1006.2
20240529225234 56 184 1.0 3.0 0.00 1.09 0.00 93 1006.2
20240529224848 56 185 2.0 3.0 0.00 1.09 0.00 93 1006.2
20240529223804 56 191 1.0 2.0 0.00 1.10 0.00 92 1006.3
20240529223720 56 190 0.0 1.0 0.00 1.09 0.00 93 1006.3
20240529223259 56 191 0.0 2.0 0.00 1.09 0.00 93 1006.3
20240529222837 56 191 1.0 2.0 0.00 1.10 0.00 93 1006.3
20240529221710 56 190 1.0 3.0 0.00 1.10 0.00 92 1006.3
20240529221209 56 190 2.0 4.0 0.00 1.10 0.00 92 1006.4
20240529220706 57 192 2.0 4.0 0.00 1.10 0.00 92 1006.4
20240529220210 57 189 1.0 3.0 0.00 1.10 0.00 92 1006.5
20240529215703 57 188 1.0 2.0 0.00 1.10 1.10 92 1006.5
20240529215203 57 188 1.0 3.0 0.00 1.10 1.10 92 1006.5
20240529214657 57 188 1.0 3.0 0.00 1.10 1.10 91 1006.5
20240529214159 57 188 1.0 2.0 0.00 1.10 1.10 91 1006.6
20240529213654 57 188 1.0 3.0 0.00 1.10 1.10 91 1006.6
20240529213207 58 188 2.0 3.0 0.00 1.10 1.10 91 1006.6
20240529212654 58 188 2.0 3.0 0.00 1.10 1.10 91 1006.7
20240529212159 58 188 2.0 3.0 0.00 1.10 1.10 90 1006.7
20240529211653 58 188 2.0 3.0 0.00 1.10 1.10 90 1006.7
20240529211149 58 190 2.0 3.0 0.00 1.10 1.10 89 1006.7
20240529210650 58 190 1.0 3.0 0.00 1.10 1.10 89 1006.7
20240529210148 58 190 2.0 3.0 0.00 1.10 1.10 88 1006.7
20240529205747 59 215 1.0 3.0 0.00 1.11 1.10 87 1006.6
20240529205656 59 196 1.0 3.0 0.00 1.11 1.10 88 1006.7
20240529205309 59 212 1.0 3.0 0.00 1.11 1.10 87 1006.6
20240529204150 60 215 1.0 3.0 0.00 1.12 1.10 87 1006.7
20240529203645 60 216 1.0 3.0 0.00 1.12 1.10 87 1006.7
20240529203143 60 216 2.0 3.0 0.00 1.12 1.10 87 1006.7
20240529202645 60 214 1.0 4.0 0.00 1.14 1.10 87 1006.7
20240529202135 60 204 2.0 4.0 0.00 1.17 1.10 87 1006.7
20240529201637 60 204 2.0 4.0 0.00 1.19 1.10 87 1006.7
20240529201135 60 192 2.0 4.0 0.00 1.20 1.10 87 1006.8
20240529200633 60 187 1.0 3.0 0.00 1.20 1.10 87 1006.7
20240529200131 60 187 1.0 3.0 0.00 1.20 1.10 87 1006.8
20240529200109 61 214 2.0 3.0 0.00 1.22 1.10 85 1006.7
20240529195710 60 187 2.0 4.0 0.00 1.20 1.10 86 1006.7
20240529195258 60 188 2.0 4.0 0.00 1.21 1.10 86 1006.7
20240529194655 60 200 2.0 4.0 0.00 1.21 1.10 85 1006.7
20240529194226 61 209 2.0 4.0 0.00 1.21 1.10 85 1006.8
20240529193124 61 213 2.0 4.0 0.00 1.22 1.10 84 1006.7
20240529192614 61 212 3.0 4.0 0.00 1.22 1.10 84 1006.7
20240529192115 61 209 3.0 7.0 0.00 1.23 1.10 84 1006.7
20240529191625 62 271 4.0 9.0 0.00 1.33 1.10 82 1006.7
20240529191617 61 252 4.0 7.0 0.00 1.24 1.10 83 1006.7
20240529191609 62 239 4.0 9.0 0.00 1.29 1.10 82 1006.7
20240529191201 61 252 4.0 8.0 0.00 1.26 1.10 83 1006.7
20240529190728 61 248 4.0 8.0 0.00 1.28 1.10 83 1006.7
20240529190330 62 263 4.0 8.0 0.00 1.28 1.10 83 1006.7
20240529185214 62 243 4.0 9.0 0.00 1.29 1.10 82 1006.7
20240529184752 62 250 3.0 8.0 0.00 1.30 1.10 82 1006.7
20240529184144 62 237 3.0 8.0 0.00 1.31 1.10 82 1006.7
20240529183723 62 239 3.0 7.0 0.00 1.32 1.10 82 1006.7
20240529182610 62 246 5.0 10.0 0.00 1.34 1.10 82 1006.8
20240529182100 62 239 5.0 10.0 0.00 1.34 1.10 83 1006.8
20240529182028 62 0 5.0 10.0 0.00 1.37 1.10 82 1007.1
20240529182009 61 252 5.0 10.0 0.00 1.37 1.10 82 1007.0
20240529181624 62 227 4.0 9.0 0.00 1.35 1.10 83 1006.9
20240529181212 62 0 4.0 8.0 0.00 1.35 1.10 83 1006.9
20240529180813 61 236 4.0 8.0 0.00 1.35 1.10 83 1007.0
20240529180141 61 261 4.0 8.0 0.00 1.36 1.10 83 1007.0
20240529175727 61 235 4.0 9.0 0.00 1.36 1.10 83 1007.0
20240529175325 61 227 5.0 9.0 0.00 1.37 1.10 82 1007.0
20240529173641 62 263 5.0 11.0 0.00 1.38 1.10 82 1007.1
20240529173603 62 239 5.0 9.0 0.00 1.37 1.10 81 1007.0
20240529173203 62 277 4.0 9.0 0.00 1.38 1.10 82 1007.0
20240529172717 62 269 5.0 11.0 0.00 1.38 1.10 82 1007.1
20240529171559 62 218 5.0 12.0 0.00 1.39 1.10 82 1007.1
20240529171054 62 286 6.0 12.0 0.01 1.39 1.10 81 1007.2
20240529170609 62 291 6.0 12.0 0.01 1.39 1.10 81 1007.1
20240529170104 62 277 5.0 10.0 0.01 1.40 1.10 82 1007.1
20240529165814 62 232 4.0 11.0 0.01 1.43 1.10 83 1007.0
20240529165605 62 259 4.0 9.0 0.01 1.42 1.10 83 1007.1
20240529165136 62 248 4.0 8.0 0.01 1.43 1.10 83 1007.0
20240529164046 61 278 5.0 11.0 0.01 1.43 1.10 83 1007.0
20240529163549 61 326 6.0 14.0 0.01 1.43 1.10 83 1007.0
20240529163040 61 279 6.0 14.0 0.01 1.43 1.10 83 1007.1
20240529163019 61 142 8.0 14.0 0.01 1.43 1.10 83 1007.0
20240529162624 61 309 6.0 13.0 0.01 1.43 1.10 83 1007.0
20240529161542 61 74 7.0 14.0 0.01 1.43 1.10 82 1007.0
20240529161038 61 288 6.0 12.0 0.00 1.43 1.09 82 1007.0
20240529160535 62 281 5.0 10.0 0.00 1.43 1.09 82 1007.0
20240529160035 62 88 6.0 13.0 0.00 1.43 1.09 82 1007.0
20240529155535 61 0 8.0 13.0 0.00 1.43 1.09 82 1007.0
20240529155342 61 177 8.0 15.0 0.00 1.43 1.09 86 1007.0
20240529155114 61 266 7.0 13.0 0.00 1.43 1.09 84 1007.0
20240529154648 61 22 7.0 13.0 0.00 1.43 1.09 85 1007.0
20240529153550 61 274 8.0 15.0 0.00 1.43 1.09 86 1007.0
20240529153403 61 0 7.0 14.0 0.00 1.43 1.09 86 1007.0
20240529153041 61 0 7.0 16.0 0.00 1.43 1.09 86 1007.0
20240529152618 61 0 6.0 16.0 0.00 1.43 1.09 86 1007.0
20240529151528 61 294 9.0 14.0 0.00 1.43 1.09 85 1007.0
20240529151421 61 245 7.0 15.0 0.00 1.43 1.09 88 1007.0
20240529151100 61 0 9.0 17.0 0.00 1.43 1.09 86 1006.9
20240529150640 61 262 9.0 17.0 0.00 1.43 1.09 87 1007.0
20240529145927 59 88 8.0 17.0 0.09 1.43 1.09 89 1007.3
20240529145921 62 254 9.0 20.0 0.08 1.41 1.08 86 1007.1
20240529145914 60 0 4.0 12.0 0.09 1.43 1.09 91 1006.9
20240529145900 60 9 3.0 6.0 0.09 1.43 1.09 91 1006.9
20240529145855 60 306 3.0 8.0 0.09 1.43 1.09 92 1007.0
20240529145552 61 52 6.0 14.0 0.00 1.43 1.09 89 1007.0
20240529145146 61 0 6.0 15.0 0.00 1.43 1.09 90 1006.9
20240529144817 61 323 4.0 15.0 0.01 1.43 1.09 90 1006.9
20240529144427 60 17 3.0 12.0 0.03 1.43 1.09 91 1006.9
20240529142108 59 335 5.0 12.0 0.09 1.43 1.09 91 1007.1
20240529141654 59 323 6.0 14.0 0.09 1.43 1.09 91 1007.3
20240529141328 59 308 7.0 16.0 0.09 1.43 1.09 91 1007.3
20240529140850 59 296 8.0 16.0 0.09 1.43 1.09 90 1007.3
20240529135604 59 277 10.0 20.0 0.09 1.43 1.09 88 1007.3
20240529135129 60 247 9.0 20.0 0.09 1.42 1.09 87 1007.2
20240529134038 63 248 9.0 20.0 0.06 1.39 1.06 82 1006.7
20240529133534 65 210 7.0 18.0 0.00 1.33 1.00 79 1006.4
20240529133029 65 164 6.0 13.0 0.00 1.33 1.00 76 1006.4
20240529132529 65 236 5.0 13.0 0.00 1.33 1.00 74 1006.3
20240529132045 65 223 4.0 10.0 0.00 1.33 1.00 75 1006.4
20240529131951 63 0 7.0 16.0 0.00 1.33 1.00 80 1007.5
20240529131941 65 232 8.0 14.0 0.00 1.33 1.00 76 1006.6
20240529131918 65 239 6.0 15.0 0.00 1.33 1.00 76 1006.8
20240529131621 65 271 3.0 8.0 0.00 1.33 1.00 77 1006.5
20240529131237 65 202 4.0 12.0 0.00 1.33 1.00 78 1006.5
20240529130213 65 244 8.0 15.0 0.00 1.33 1.00 77 1006.7
20240529125108 65 0 4.0 10.0 0.00 1.33 1.00 77 1007.1
20240529124648 65 286 5.0 10.0 0.00 1.33 1.00 78 1007.1
20240529124145 63 316 9.0 24.0 0.00 1.33 1.00 82 1007.4
20240529124128 63 290 9.0 24.0 0.00 1.33 1.00 81 1007.5
20240529124122 63 323 7.0 15.0 0.00 1.33 1.00 83 1007.5
20240529124013 65 0 5.0 10.0 0.00 1.33 1.00 78 1007.1
20240529123551 64 311 5.0 12.0 0.00 1.33 1.00 79 1007.2
20240529123136 64 271 5.0 13.0 0.00 1.33 1.00 80 1007.3
20240529122747 64 280 6.0 13.0 0.00 1.33 1.00 80 1007.3
20240529122313 64 0 8.0 16.0 0.00 1.33 1.00 78 1007.3
20240529121910 63 304 7.0 16.0 0.00 1.33 1.00 78 1007.4
20240529114957 62 0 5.0 13.0 0.00 1.33 1.00 85 1007.6
20240529114458 62 284 6.0 13.0 0.00 1.33 1.00 87 1007.8
20240529114009 61 205 7.0 16.0 0.01 1.33 1.00 88 1007.8
20240529113457 60 282 5.0 16.0 0.01 1.33 1.00 88 1007.9
20240529113000 59 102 5.0 12.0 0.01 1.33 1.00 90 1007.9
20240529112458 58 0 5.0 12.0 0.01 1.33 1.00 89 1008.0
20240529112004 58 0 8.0 11.0 0.01 1.33 1.00 89 1008.0
20240529111451 58 154 8.0 16.0 0.01 1.33 1.00 89 1008.1
20240529111007 58 293 8.0 16.0 0.01 1.33 1.00 87 1008.1
20240529110435 58 285 8.0 16.0 0.01 1.33 1.00 87 1008.1
20240529105949 59 346 9.0 21.0 0.01 1.33 1.00 85 1008.0
20240529105446 59 296 10.0 26.0 0.01 1.33 1.00 83 1008.1
20240529104932 61 289 11.0 30.0 0.01 1.33 1.00 81 1008.2
20240529104444 62 205 11.0 30.0 0.01 1.33 1.00 81 1008.1
20240529103951 63 251 9.0 19.0 0.00 1.32 0.99 83 1007.7
20240529103438 63 239 8.0 19.0 0.00 1.32 0.99 84 1007.6
20240529102951 62 242 9.0 19.0 0.00 1.32 0.99 84 1007.6
20240529102432 63 215 11.0 23.0 0.00 1.32 0.99 85 1007.7
20240529101944 62 244 11.0 23.0 0.00 1.32 0.99 85 1007.7
20240529101444 62 0 11.0 22.0 0.00 1.32 0.99 85 1007.8
20240529100942 62 260 12.0 22.0 0.00 1.32 0.99 86 1007.7
20240529100512 61 241 11.0 21.0 0.00 1.32 0.99 86 1007.9
20240529095945 61 249 11.0 19.0 0.00 1.32 0.99 88 1007.8
20240529095434 61 247 9.0 19.0 0.00 1.32 0.99 90 1007.9
20240529094933 61 243 10.0 21.0 0.00 1.32 0.99 92 1007.9
20240529094433 60 227 11.0 21.0 0.00 1.32 0.99 92 1007.9
20240529093936 60 224 9.0 17.0 0.00 1.32 0.99 93 1007.8
20240529093435 60 244 8.0 17.0 0.00 1.32 0.99 94 1007.9
20240529093045 58 179 11.0 30.0 0.13 1.31 0.97 94 1008.0
20240529093027 60 259 14.0 30.0 0.09 1.28 0.94 94 1008.1
20240529093018 58 297 6.0 14.0 0.14 1.33 0.99 95 1008.1
20240529092941 60 252 8.0 16.0 0.00 1.32 0.99 95 1008.0
20240529092522 59 231 8.0 16.0 0.02 1.32 0.99 95 1007.9
20240529092054 59 247 8.0 16.0 0.05 1.32 0.99 95 1007.9
20240529091632 59 222 6.0 14.0 0.12 1.32 0.99 95 1007.9
20240529090947 59 195 5.0 11.0 0.13 1.33 0.99 96 1008.0
20240529090525 59 211 6.0 12.0 0.13 1.33 0.99 95 1008.1
20240529090130 58 279 6.0 12.0 0.13 1.33 0.99 95 1008.0
20240529085526 58 235 6.0 12.0 0.14 1.33 0.99 95 1008.1
20240529085101 58 234 6.0 12.0 0.14 1.33 0.99 95 1008.1
20240529084101 58 225 7.0 14.0 0.14 1.33 0.99 95 1008.1
20240529083648 58 275 9.0 20.0 0.14 1.33 0.99 95 1008.0
20240529083228 58 245 9.0 20.0 0.14 1.33 0.99 94 1008.1
20240529081439 60 248 12.0 25.0 0.02 1.20 0.87 94 1007.6
20240529081141 60 210 8.0 18.0 0.01 1.20 0.86 94 1007.4
20240529080955 60 252 11.0 22.0 0.02 1.20 0.87 94 1007.5
20240529080529 60 230 10.0 21.0 0.01 1.20 0.86 94 1007.4
20240529075422 60 200 8.0 18.0 0.00 1.19 0.85 95 1007.5
20240529074930 59 0 8.0 18.0 0.01 1.19 0.85 97 1007.6
20240529074921 60 178 10.0 23.0 0.00 1.19 0.85 95 1007.6
20240529074916 60 229 11.0 21.0 0.01 1.19 0.85 96 1007.4
20240529074455 60 0 9.0 23.0 0.01 1.19 0.85 95 1007.5
20240529074051 60 0 9.0 17.0 0.01 1.19 0.85 96 1007.5
20240529073622 60 254 11.0 21.0 0.01 1.19 0.85 96 1007.5
20240529072551 59 273 9.0 19.0 0.01 1.19 0.85 96 1007.6
20240529071431 59 210 9.0 14.0 0.13 1.18 0.84 97 1007.7
20240529071414 59 0 9.0 21.0 0.01 1.19 0.85 97 1007.5
20240529071353 59 0 11.0 21.0 0.02 1.19 0.85 97 1007.5
20240529071348 59 0 9.0 17.0 0.07 1.18 0.84 97 1007.7
20240529071006 59 157 11.0 21.0 0.02 1.19 0.85 97 1007.5
20240529070554 59 0 11.0 18.0 0.02 1.19 0.85 97 1007.6
20240529070146 59 0 11.0 21.0 0.02 1.19 0.85 97 1007.5
20240529065111 59 232 9.0 19.0 0.02 1.18 0.84 97 1007.5
20240529064441 59 205 9.0 19.0 0.04 1.18 0.84 97 1007.5
20240529064033 59 184 9.0 19.0 0.05 1.18 0.84 97 1007.5
20240529063615 59 219 9.0 18.0 0.05 1.18 0.84 97 1007.7
20240529062501 59 0 9.0 14.0 0.09 1.18 0.84 97 1007.8
20240529061350 59 0 8.0 14.0 0.16 1.17 0.83 97 1007.7
20240529060904 59 236 8.0 14.0 0.17 1.17 0.83 97 1007.8
20240529060349 59 0 8.0 16.0 0.17 1.17 0.83 97 1007.8
20240529055847 59 195 8.0 16.0 0.19 1.17 0.83 97 1007.8
20240529055357 59 286 8.0 16.0 0.19 1.17 0.83 97 1007.8
20240529055024 59 225 8.0 16.0 0.17 1.13 0.80 97 1007.9
20240529054912 59 251 7.0 16.0 0.18 1.16 0.82 97 1007.9
20240529054512 59 238 7.0 14.0 0.17 1.14 0.80 97 1007.8
20240529053336 59 239 7.0 16.0 0.20 1.13 0.79 97 1007.9
20240529052838 59 257 6.0 12.0 0.20 1.11 0.77 97 1007.9
20240529052340 59 219 7.0 15.0 0.20 1.09 0.75 97 1007.9
20240529051833 59 203 7.0 15.0 0.19 1.06 0.71 97 1007.8
20240529051327 59 197 7.0 16.0 0.20 1.02 0.68 97 1007.8
20240529051322 59 173 8.0 15.0 0.21 0.99 0.65 97 1008.0
20240529050925 59 209 7.0 16.0 0.21 1.00 0.66 97 1007.9
20240529045826 59 232 8.0 15.0 0.22 0.98 0.65 97 1008.0
20240529045326 58 218 7.0 15.0 0.24 0.98 0.65 97 1008.0
20240529044826 58 203 5.0 12.0 0.24 0.98 0.64 97 1008.1
20240529044333 58 179 5.0 11.0 0.25 0.98 0.63 97 1008.1
20240529043828 58 210 5.0 11.0 0.25 0.96 0.61 97 1008.1
20240529043331 58 219 5.0 8.0 0.23 0.93 0.58 97 1008.2
20240529042824 58 207 6.0 12.0 0.22 0.91 0.57 97 1008.3
20240529042326 58 202 7.0 12.0 0.24 0.89 0.54 97 1008.3
20240529041826 58 248 6.0 14.0 0.24 0.87 0.52 97 1008.4
20240529041322 58 0 7.0 14.0 0.23 0.83 0.48 97 1008.6
20240529040817 58 171 7.0 14.0 0.20 0.79 0.45 97 1008.1
20240529040317 58 192 9.0 21.0 0.20 0.78 0.43 97 1008.3
20240529035813 58 238 12.0 23.0 0.20 0.76 0.43 97 1008.3
20240529035323 58 172 12.0 23.0 0.18 0.74 0.39 97 1008.2
20240529035038 58 167 8.0 18.0 0.19 0.73 0.39 97 1008.3
20240529034511 58 191 9.0 17.0 0.19 0.72 0.38 97 1008.4
20240529033514 58 178 5.0 10.0 0.11 0.62 0.28 96 1008.7
20240529033456 58 154 6.0 12.0 0.13 0.65 0.31 96 1008.7
20240529031033 58 164 6.0 12.0 0.07 0.56 0.22 96 1009.0
20240529024923 59 178 7.0 14.0 0.08 0.54 0.20 96 1009.3
20240529023838 59 206 7.0 12.0 0.08 0.54 0.19 96 1009.4
20240529022118 59 169 5.0 10.0 0.07 0.52 0.17 96 1009.5
20240529021304 59 181 5.0 10.0 0.07 0.50 0.14 96 1009.8
20240529021016 59 202 5.0 10.0 0.07 0.51 0.17 96 1009.7
20240529020236 59 182 5.0 10.0 0.07 0.47 0.13 96 1009.9
20240529014528 59 165 4.0 10.0 0.07 0.46 0.12 96 1010.0
20240529014348 59 0 9.0 17.0 0.09 0.46 0.12 96 1010.2
20240529013413 59 190 7.0 17.0 0.09 0.46 0.12 96 1010.2
20240529011937 59 163 5.0 12.0 0.08 0.46 0.11 96 1010.4
20240529010734 59 205 7.0 14.0 0.01 0.35 0.01 96 1011.4
20240529010614 59 198 6.0 11.0 0.01 0.35 0.01 96 1011.4
20240529010537 59 0 5.0 12.0 0.02 0.38 0.03 96 1010.8
20240529010513 59 190 5.0 9.0 0.06 0.43 0.08 96 1010.6
20240529010406 59 0 9.0 15.0 0.02 0.37 0.02 96 1011.2
20240529010340 59 0 9.0 19.0 0.00 0.35 0.01 96 1011.3
20240529005012 59 189 4.0 9.0 0.03 0.39 0.04 96 1010.8
20240529002136 59 211 9.0 17.0 0.02 0.38 0.03 96 1011.1
20240529001029 59 0 9.0 17.0 0.02 0.37 0.02 96 1011.2
20240528235906 59 0 9.0 14.0 0.00 0.35 0.01 96 1011.3